| time (UTC) | temp C | wind direction | speed KPH | gust KPH | rain 1hr cm | rain 24hr cm | rain mn cm | humidity % | barometer mb |
| 20260508063603 | 5 | 309 | 3.2 | 4.8 | 0.00 | 0.00 | 0.00 | 65 | 1023.5 |
| 20260508063104 | 5 | 272 | 3.2 | 4.8 | 0.00 | 0.00 | 0.00 | 65 | 1023.5 |
| 20260508062603 | 5 | 269 | 1.6 | 4.8 | 0.00 | 0.00 | 0.00 | 66 | 1023.4 |
| 20260508062104 | 4 | 269 | 1.6 | 4.8 | 0.00 | 0.00 | 0.00 | 68 | 1023.4 |
| 20260508061603 | 4 | 269 | 1.6 | 3.2 | 0.00 | 0.00 | 0.00 | 67 | 1023.3 |
| 20260508061103 | 4 | 269 | 3.2 | 4.8 | 0.00 | 0.00 | 0.00 | 68 | 1023.3 |
| 20260508060607 | 3 | 271 | 0.0 | 1.6 | 0.00 | 0.00 | 0.00 | 68 | 1023.2 |
| 20260508060106 | 3 | 270 | 1.6 | 3.2 | 0.00 | 0.00 | 0.00 | 69 | 1023.2 |
| 20260508055603 | 3 | 270 | 1.6 | 4.8 | 0.00 | 0.00 | 0.00 | 69 | 1023.2 |
| 20260508055103 | 3 | 272 | 1.6 | 4.8 | 0.00 | 0.00 | 0.00 | 69 | 1023.2 |
| 20260508054604 | 3 | 272 | 0.0 | 3.2 | 0.00 | 0.00 | 0.00 | 69 | 1023.1 |
| 20260508054104 | 3 | 272 | 1.6 | 3.2 | 0.00 | 0.00 | 0.00 | 70 | 1023.1 |
| 20260508053603 | 3 | 0 | 1.6 | 4.8 | 0.00 | 0.00 | 0.00 | 69 | 1023.0 |
| 20260508053103 | 3 | 0 | 1.6 | 4.8 | 0.00 | 0.00 | 0.00 | 70 | 1023.0 |
| 20260508052603 | 3 | 0 | 0.0 | 1.6 | 0.00 | 0.00 | 0.00 | 71 | 1022.9 |
| 20260508052103 | 2 | 0 | 1.6 | 3.2 | 0.00 | 0.00 | 0.00 | 72 | 1022.8 |
| 20260508051604 | 2 | 0 | 3.2 | 4.8 | 0.00 | 0.00 | 0.00 | 72 | 1022.8 |
| 20260508051104 | 2 | 0 | 0.0 | 3.2 | 0.00 | 0.00 | 0.00 | 72 | 1022.8 |
| 20260508050604 | 2 | 0 | 0.0 | 0.0 | 0.00 | 0.00 | 0.00 | 73 | 1022.8 |
| 20260508050104 | 2 | 0 | 0.0 | 3.2 | 0.00 | 0.00 | 0.00 | 74 | 1022.7 |
| 20260508045603 | 2 | 272 | 1.6 | 3.2 | 0.00 | 0.00 | 0.00 | 74 | 1022.7 |
| 20260508045104 | 2 | 272 | 0.0 | 0.0 | 0.00 | 0.00 | 0.00 | 75 | 1022.7 |
| 20260508044604 | 2 | 272 | 0.0 | 3.2 | 0.00 | 0.00 | 0.00 | 74 | 1022.7 |
| 20260508044103 | 2 | 272 | 0.0 | 1.6 | 0.00 | 0.00 | 0.00 | 75 | 1022.7 |
| 20260508043604 | 1 | 272 | 1.6 | 3.2 | 0.00 | 0.00 | 0.00 | 75 | 1022.6 |
| 20260508043104 | 1 | 272 | 0.0 | 0.0 | 0.00 | 0.00 | 0.00 | 75 | 1022.6 |
| 20260508042604 | 1 | 272 | 0.0 | 0.0 | 0.00 | 0.00 | 0.00 | 76 | 1022.5 |
| 20260508042104 | 1 | 272 | 0.0 | 1.6 | 0.00 | 0.00 | 0.00 | 76 | 1022.5 |
| 20260508041604 | 1 | 272 | 0.0 | 1.6 | 0.00 | 0.00 | 0.00 | 77 | 1022.5 |
| 20260508041103 | 0 | 272 | 0.0 | 1.6 | 0.00 | 0.00 | 0.00 | 77 | 1022.5 |
| 20260508040605 | 0 | 272 | 0.0 | 0.0 | 0.00 | 0.00 | 0.00 | 79 | 1022.4 |
| 20260508040104 | 0 | 272 | 0.0 | 0.0 | 0.00 | 0.00 | 0.00 | 80 | 1022.4 |
| 20260508035603 | 0 | 272 | 0.0 | 0.0 | 0.00 | 0.00 | 0.00 | 82 | 1022.4 |
| 20260508035103 | -1 | 272 | 0.0 | 0.0 | 0.00 | 0.00 | 0.00 | 84 | 1022.4 |
| 20260508034604 | -1 | 323 | 0.0 | 0.0 | 0.00 | 0.00 | 0.00 | 86 | 1022.4 |
| 20260508034103 | -2 | 317 | 0.0 | 0.0 | 0.00 | 0.00 | 0.00 | 87 | 1022.4 |
| 20260508033604 | -2 | 272 | 0.0 | 0.0 | 0.00 | 0.00 | 0.00 | 87 | 1022.4 |
| 20260508033104 | -2 | 272 | 0.0 | 0.0 | 0.00 | 0.00 | 0.00 | 88 | 1022.4 |
| 20260508032603 | -2 | 272 | 0.0 | 0.0 | 0.00 | 0.00 | 0.00 | 88 | 1022.4 |
| 20260508032104 | -3 | 0 | 0.0 | 0.0 | 0.00 | 0.00 | 0.00 | 89 | 1022.3 |
| 20260508031604 | -3 | 0 | 0.0 | 0.0 | 0.00 | 0.00 | 0.00 | 89 | 1022.2 |
| 20260508031103 | -3 | 0 | 0.0 | 0.0 | 0.00 | 0.00 | 0.00 | 89 | 1022.2 |
| 20260508030603 | -3 | 0 | 0.0 | 0.0 | 0.00 | 0.00 | 0.00 | 89 | 1022.2 |
| 20260508030104 | -4 | 0 | 0.0 | 0.0 | 0.00 | 0.00 | 0.00 | 89 | 1022.1 |
| 20260508025604 | -4 | 0 | 0.0 | 0.0 | 0.00 | 0.00 | 0.00 | 88 | 1022.1 |
| 20260508025104 | -4 | 0 | 0.0 | 0.0 | 0.00 | 0.00 | 0.00 | 88 | 1022.1 |
| 20260508024603 | -4 | 0 | 0.0 | 0.0 | 0.00 | 0.00 | 0.00 | 88 | 1022.0 |
| 20260508024104 | -4 | 0 | 0.0 | 0.0 | 0.00 | 0.00 | 0.00 | 88 | 1022.1 |
| 20260508023603 | -4 | 0 | 0.0 | 0.0 | 0.00 | 0.00 | 0.00 | 89 | 1022.1 |
| 20260508023104 | -4 | 0 | 0.0 | 0.0 | 0.00 | 0.00 | 0.00 | 88 | 1022.0 |
| 20260508022604 | -4 | 0 | 0.0 | 0.0 | 0.00 | 0.00 | 0.00 | 87 | 1021.9 |
| 20260508022103 | -4 | 0 | 0.0 | 0.0 | 0.00 | 0.00 | 0.00 | 87 | 1021.8 |
| 20260508021604 | -3 | 0 | 0.0 | 0.0 | 0.00 | 0.00 | 0.00 | 86 | 1021.8 |
| 20260508021104 | -3 | 0 | 0.0 | 1.6 | 0.00 | 0.00 | 0.00 | 86 | 1021.8 |
| 20260508020604 | -3 | 0 | 1.6 | 3.2 | 0.00 | 0.00 | 0.00 | 87 | 1021.8 |
| 20260508020104 | -3 | 0 | 1.6 | 3.2 | 0.00 | 0.00 | 0.00 | 87 | 1021.7 |
| 20260508015604 | -3 | 0 | 0.0 | 0.0 | 0.00 | 0.00 | 0.00 | 87 | 1021.7 |
| 20260508015104 | -3 | 0 | 0.0 | 0.0 | 0.00 | 0.00 | 0.00 | 87 | 1021.6 |
| 20260508014604 | -3 | 0 | 0.0 | 0.0 | 0.00 | 0.00 | 0.00 | 87 | 1021.5 |
| 20260508014104 | -3 | 0 | 0.0 | 1.6 | 0.00 | 0.00 | 0.00 | 88 | 1021.5 |
| 20260508013604 | -4 | 0 | 0.0 | 1.6 | 0.00 | 0.00 | 0.00 | 87 | 1021.5 |
| 20260508013104 | -4 | 0 | 1.6 | 3.2 | 0.00 | 0.00 | 0.00 | 87 | 1021.4 |
| 20260508012604 | -4 | 0 | 0.0 | 1.6 | 0.00 | 0.00 | 0.00 | 87 | 1021.5 |
| 20260508012104 | -3 | 0 | 0.0 | 0.0 | 0.00 | 0.00 | 0.00 | 86 | 1021.4 |
| 20260508011604 | -3 | 0 | 0.0 | 0.0 | 0.00 | 0.00 | 0.00 | 86 | 1021.3 |
| 20260508011104 | -3 | 0 | 0.0 | 0.0 | 0.00 | 0.00 | 0.00 | 86 | 1021.3 |
| 20260508010603 | -3 | 0 | 0.0 | 0.0 | 0.00 | 0.00 | 0.00 | 85 | 1021.3 |
| 20260508010105 | -3 | 0 | 0.0 | 1.6 | 0.00 | 0.00 | 0.00 | 85 | 1021.2 |
| 20260508005603 | -3 | 0 | 0.0 | 1.6 | 0.00 | 0.00 | 0.00 | 85 | 1021.1 |
| 20260508005104 | -3 | 0 | 1.6 | 3.2 | 0.00 | 0.00 | 0.00 | 85 | 1021.1 |
| 20260508004604 | -3 | 0 | 1.6 | 3.2 | 0.00 | 0.00 | 0.00 | 85 | 1021.1 |
| 20260508004104 | -3 | 0 | 0.0 | 0.0 | 0.00 | 0.00 | 0.00 | 85 | 1021.1 |
| 20260508003604 | -3 | 0 | 0.0 | 0.0 | 0.00 | 0.00 | 0.00 | 85 | 1021.0 |
| 20260508003104 | -3 | 0 | 0.0 | 0.0 | 0.00 | 0.00 | 0.00 | 84 | 1020.9 |
| 20260508002603 | -3 | 0 | 0.0 | 0.0 | 0.00 | 0.00 | 0.00 | 84 | 1020.9 |
| 20260508002103 | -3 | 0 | 0.0 | 0.0 | 0.00 | 0.00 | 0.00 | 84 | 1020.8 |
| 20260508001604 | -3 | 0 | 0.0 | 0.0 | 0.00 | 0.00 | 0.00 | 85 | 1020.8 |
| 20260508001104 | -3 | 0 | 0.0 | 0.0 | 0.00 | 0.00 | 0.00 | 84 | 1020.7 |
| 20260508000604 | -3 | 0 | 0.0 | 0.0 | 0.00 | 0.00 | 0.00 | 84 | 1020.7 |
| 20260508000103 | -3 | 0 | 0.0 | 0.0 | 0.00 | 0.00 | 0.00 | 84 | 1020.7 |
| 20260507235603 | -3 | 0 | 0.0 | 0.0 | 0.00 | 0.00 | 0.00 | 83 | 1020.7 |
| 20260507235104 | -3 | 0 | 0.0 | 0.0 | 0.00 | 0.00 | 0.00 | 83 | 1020.6 |
| 20260507234603 | -2 | 0 | 0.0 | 0.0 | 0.00 | 0.00 | 0.00 | 84 | 1020.5 |
| 20260507234104 | -2 | 0 | 0.0 | 0.0 | 0.00 | 0.00 | 0.00 | 84 | 1020.4 |
| 20260507233604 | -2 | 0 | 0.0 | 0.0 | 0.00 | 0.00 | 0.00 | 83 | 1020.4 |
| 20260507233104 | -2 | 0 | 0.0 | 0.0 | 0.00 | 0.00 | 0.00 | 83 | 1020.3 |
| 20260507232603 | -2 | 0 | 0.0 | 0.0 | 0.00 | 0.00 | 0.00 | 83 | 1020.2 |
| 20260507232103 | -2 | 0 | 0.0 | 0.0 | 0.00 | 0.00 | 0.00 | 83 | 1020.2 |
| 20260507231603 | -2 | 0 | 0.0 | 0.0 | 0.00 | 0.00 | 0.00 | 83 | 1020.2 |
| 20260507231103 | -2 | 0 | 0.0 | 1.6 | 0.00 | 0.00 | 0.00 | 83 | 1020.2 |
| 20260507230603 | -2 | 0 | 0.0 | 0.0 | 0.00 | 0.00 | 0.00 | 82 | 1020.1 |
| 20260507230104 | -2 | 0 | 0.0 | 0.0 | 0.00 | 0.00 | 0.00 | 81 | 1020.1 |
| 20260507225603 | -2 | 0 | 1.6 | 1.6 | 0.00 | 0.00 | 0.00 | 80 | 1020.1 |
| 20260507225104 | -1 | 0 | 1.6 | 3.2 | 0.00 | 0.00 | 0.00 | 79 | 1020.1 |
| 20260507224604 | -1 | 0 | 0.0 | 0.0 | 0.00 | 0.00 | 0.00 | 79 | 1020.1 |
| 20260507224104 | -1 | 0 | 0.0 | 0.0 | 0.00 | 0.00 | 0.00 | 79 | 1020.1 |
| 20260507223603 | -1 | 0 | 0.0 | 0.0 | 0.00 | 0.00 | 0.00 | 78 | 1020.0 |
| 20260507223104 | -1 | 0 | 0.0 | 0.0 | 0.00 | 0.00 | 0.00 | 79 | 1020.0 |
| 20260507222604 | -1 | 0 | 0.0 | 0.0 | 0.00 | 0.00 | 0.00 | 78 | 1019.9 |
| 20260507222104 | -1 | 0 | 0.0 | 0.0 | 0.00 | 0.00 | 0.00 | 79 | 1019.9 |
| 20260507221604 | -1 | 0 | 0.0 | 0.0 | 0.00 | 0.00 | 0.00 | 78 | 1019.9 |
| 20260507221107 | -1 | 0 | 0.0 | 0.0 | 0.00 | 0.00 | 0.00 | 77 | 1019.9 |
| 20260507220604 | -1 | 0 | 0.0 | 0.0 | 0.00 | 0.00 | 0.00 | 77 | 1019.9 |
| 20260507215604 | -1 | 0 | 0.0 | 0.0 | 0.00 | 0.00 | 0.00 | 78 | 1019.8 |
| 20260507215104 | -1 | 0 | 0.0 | 0.0 | 0.00 | 0.00 | 0.00 | 77 | 1019.8 |
| 20260507214603 | -1 | 0 | 0.0 | 0.0 | 0.00 | 0.00 | 0.00 | 76 | 1019.7 |
| 20260507214104 | -1 | 0 | 0.0 | 0.0 | 0.00 | 0.00 | 0.00 | 76 | 1019.7 |
| 20260507213604 | -1 | 0 | 0.0 | 0.0 | 0.00 | 0.00 | 0.00 | 76 | 1019.6 |
| 20260507213104 | -1 | 0 | 0.0 | 0.0 | 0.00 | 0.00 | 0.00 | 76 | 1019.6 |
| 20260507212604 | -1 | 0 | 0.0 | 0.0 | 0.00 | 0.00 | 0.00 | 76 | 1019.5 |
| 20260507212103 | -1 | 0 | 0.0 | 3.2 | 0.00 | 0.00 | 0.00 | 75 | 1019.5 |
| 20260507211604 | -1 | 0 | 0.0 | 1.6 | 0.00 | 0.00 | 0.00 | 75 | 1019.5 |
| 20260507211103 | -1 | 0 | 1.6 | 4.8 | 0.00 | 0.00 | 0.00 | 74 | 1019.4 |
| 20260507210603 | -1 | 0 | 0.0 | 1.6 | 0.00 | 0.00 | 0.00 | 74 | 1019.4 |
| 20260507210104 | 0 | 0 | 0.0 | 0.0 | 0.00 | 0.00 | 0.00 | 73 | 1019.3 |
| 20260507205604 | 0 | 0 | 0.0 | 0.0 | 0.00 | 0.00 | 0.00 | 72 | 1019.3 |
| 20260507205104 | 0 | 0 | 0.0 | 0.0 | 0.00 | 0.00 | 0.00 | 72 | 1019.2 |
| 20260507204603 | 0 | 0 | 0.0 | 0.0 | 0.00 | 0.00 | 0.00 | 71 | 1019.2 |
| 20260507204104 | 0 | 0 | 0.0 | 0.0 | 0.00 | 0.00 | 0.00 | 71 | 1019.1 |
| 20260507203604 | 0 | 0 | 0.0 | 0.0 | 0.00 | 0.00 | 0.00 | 71 | 1019.0 |
| 20260507203104 | 0 | 0 | 0.0 | 0.0 | 0.00 | 0.00 | 0.00 | 71 | 1018.9 |
| 20260507202604 | 0 | 0 | 0.0 | 3.2 | 0.00 | 0.00 | 0.00 | 70 | 1018.9 |
| 20260507202104 | 0 | 0 | 1.6 | 3.2 | 0.00 | 0.00 | 0.00 | 70 | 1018.9 |
| 20260507201603 | 0 | 0 | 1.6 | 3.2 | 0.00 | 0.00 | 0.00 | 69 | 1018.9 |
| 20260507201103 | 0 | 0 | 1.6 | 3.2 | 0.00 | 0.00 | 0.00 | 69 | 1018.8 |
| 20260507200604 | 0 | 0 | 1.6 | 3.2 | 0.00 | 0.00 | 0.00 | 70 | 1018.7 |
| 20260507200104 | 0 | 0 | 0.0 | 1.6 | 0.00 | 0.00 | 0.00 | 69 | 1018.6 |
| 20260507195603 | 0 | 0 | 1.6 | 1.6 | 0.00 | 0.00 | 0.00 | 67 | 1018.5 |
| 20260507195104 | 0 | 0 | 0.0 | 1.6 | 0.00 | 0.00 | 0.00 | 67 | 1018.4 |
| 20260507194604 | 0 | 0 | 0.0 | 3.2 | 0.00 | 0.00 | 0.00 | 65 | 1018.3 |
| 20260507194104 | 0 | 0 | 0.0 | 1.6 | 0.00 | 0.00 | 0.00 | 67 | 1018.3 |
| 20260507193604 | 0 | 0 | 0.0 | 1.6 | 0.00 | 0.00 | 0.00 | 66 | 1018.3 |
| 20260507193104 | 1 | 0 | 0.0 | 1.6 | 0.00 | 0.00 | 0.00 | 66 | 1018.1 |
| 20260507192604 | 1 | 0 | 0.0 | 1.6 | 0.00 | 0.00 | 0.00 | 64 | 1018.1 |
| 20260507192104 | 1 | 0 | 0.0 | 1.6 | 0.00 | 0.00 | 0.00 | 62 | 1018.1 |
| 20260507191603 | 2 | 0 | 1.6 | 3.2 | 0.00 | 0.00 | 0.00 | 60 | 1018.0 |
| 20260507191103 | 2 | 0 | 0.0 | 3.2 | 0.00 | 0.00 | 0.00 | 59 | 1017.9 |
| 20260507190604 | 2 | 0 | 0.0 | 0.0 | 0.00 | 0.00 | 0.00 | 59 | 1017.8 |
| 20260507190104 | 3 | 0 | 0.0 | 4.8 | 0.00 | 0.00 | 0.00 | 57 | 1017.8 |
| 20260507185603 | 3 | 0 | 3.2 | 4.8 | 0.00 | 0.00 | 0.00 | 56 | 1017.8 |
| 20260507185104 | 3 | 0 | 0.0 | 4.8 | 0.00 | 0.00 | 0.00 | 55 | 1017.7 |
| 20260507184603 | 4 | 0 | 1.6 | 4.8 | 0.00 | 0.00 | 0.00 | 54 | 1017.7 |
| 20260507184103 | 4 | 0 | 1.6 | 4.8 | 0.00 | 0.00 | 0.00 | 53 | 1017.7 |
| 20260507183604 | 4 | 0 | 1.6 | 4.8 | 0.00 | 0.00 | 0.00 | 52 | 1017.6 |
| 20260507183104 | 5 | 0 | 4.8 | 9.7 | 0.00 | 0.00 | 0.00 | 52 | 1017.6 |
| 20260507182604 | 5 | 0 | 3.2 | 9.7 | 0.00 | 0.00 | 0.00 | 52 | 1017.5 |
| 20260507182103 | 5 | 0 | 3.2 | 4.8 | 0.00 | 0.00 | 0.00 | 51 | 1017.5 |
| 20260507181604 | 5 | 0 | 3.2 | 8.0 | 0.00 | 0.00 | 0.00 | 51 | 1017.5 |
| 20260507181104 | 5 | 0 | 6.4 | 12.9 | 0.00 | 0.00 | 0.00 | 50 | 1017.5 |
| 20260507180603 | 5 | 0 | 4.8 | 11.3 | 0.00 | 0.00 | 0.00 | 50 | 1017.4 |
| 20260507180103 | 5 | 0 | 4.8 | 14.5 | 0.00 | 0.00 | 0.00 | 51 | 1017.4 |
| 20260507175603 | 5 | 0 | 3.2 | 11.3 | 0.00 | 0.00 | 0.00 | 53 | 1017.4 |
| 20260507175104 | 5 | 334 | 1.6 | 4.8 | 0.00 | 0.00 | 0.00 | 53 | 1017.3 |
| 20260507174604 | 5 | 6 | 1.6 | 4.8 | 0.00 | 0.00 | 0.00 | 52 | 1017.2 |
| 20260507174103 | 5 | 270 | 1.6 | 4.8 | 0.00 | 0.00 | 0.00 | 53 | 1017.1 |
| 20260507173604 | 5 | 275 | 1.6 | 12.9 | 0.00 | 0.00 | 0.00 | 52 | 1017.1 |
| 20260507173104 | 5 | 316 | 1.6 | 4.8 | 0.00 | 0.00 | 0.00 | 51 | 1017.0 |
| 20260507172605 | 5 | 311 | 1.6 | 8.0 | 0.00 | 0.00 | 0.00 | 50 | 1017.0 |
| 20260507172103 | 5 | 270 | 1.6 | 4.8 | 0.00 | 0.00 | 0.00 | 50 | 1016.9 |
| 20260507171603 | 6 | 272 | 3.2 | 14.5 | 0.00 | 0.00 | 0.00 | 49 | 1016.9 |
| 20260507171104 | 6 | 273 | 3.2 | 9.7 | 0.00 | 0.00 | 0.00 | 49 | 1016.9 |
| 20260507170603 | 6 | 286 | 0.0 | 16.1 | 0.00 | 0.00 | 0.00 | 49 | 1016.7 |
| 20260507170104 | 6 | 281 | 6.4 | 16.1 | 0.00 | 0.00 | 0.00 | 48 | 1016.7 |
| 20260507165603 | 6 | 275 | 8.0 | 20.9 | 0.00 | 0.00 | 0.00 | 49 | 1016.7 |
| 20260507165103 | 6 | 271 | 3.2 | 16.1 | 0.00 | 0.00 | 0.00 | 47 | 1016.6 |
| 20260507164604 | 6 | 259 | 6.4 | 20.9 | 0.00 | 0.00 | 0.00 | 47 | 1016.6 |
| 20260507164104 | 6 | 285 | 8.0 | 19.3 | 0.00 | 0.00 | 0.00 | 50 | 1016.5 |
| 20260507163604 | 6 | 352 | 1.6 | 4.8 | 0.00 | 0.00 | 0.00 | 53 | 1016.5 |
| 20260507163104 | 5 | 292 | 1.6 | 4.8 | 0.00 | 0.00 | 0.00 | 52 | 1016.5 |
| 20260507162604 | 5 | 348 | 1.6 | 4.8 | 0.00 | 0.00 | 0.00 | 54 | 1016.5 |
| 20260507162104 | 5 | 0 | 1.6 | 3.2 | 0.00 | 0.00 | 0.00 | 54 | 1016.5 |
| 20260507161603 | 5 | 0 | 1.6 | 3.2 | 0.00 | 0.00 | 0.00 | 53 | 1016.4 |
| 20260507161103 | 5 | 0 | 1.6 | 3.2 | 0.00 | 0.00 | 0.00 | 53 | 1016.4 |
| 20260507160604 | 5 | 0 | 0.0 | 1.6 | 0.00 | 0.00 | 0.00 | 53 | 1016.2 |
| 20260507160104 | 5 | 0 | 0.0 | 3.2 | 0.00 | 0.00 | 0.00 | 52 | 1016.2 |
| 20260507155604 | 5 | 0 | 1.6 | 4.8 | 0.00 | 0.00 | 0.00 | 50 | 1016.2 |
| 20260507155103 | 6 | 284 | 3.2 | 8.0 | 0.00 | 0.00 | 0.00 | 48 | 1016.2 |
| 20260507154604 | 6 | 0 | 1.6 | 4.8 | 0.00 | 0.00 | 0.00 | 48 | 1016.2 |
| 20260507154104 | 6 | 344 | 1.6 | 4.8 | 0.00 | 0.00 | 0.00 | 48 | 1016.1 |
| 20260507153604 | 6 | 311 | 1.6 | 3.2 | 0.00 | 0.00 | 0.00 | 48 | 1016.1 |
| 20260507153104 | 6 | 293 | 1.6 | 3.2 | 0.00 | 0.00 | 0.00 | 49 | 1016.1 |
| 20260507152604 | 6 | 274 | 1.6 | 3.2 | 0.00 | 0.00 | 0.00 | 46 | 1016.0 |
| 20260507152104 | 6 | 272 | 3.2 | 4.8 | 0.00 | 0.00 | 0.00 | 47 | 1016.0 |
| 20260507151603 | 6 | 274 | 3.2 | 4.8 | 0.00 | 0.00 | 0.00 | 48 | 1016.0 |
| 20260507151104 | 6 | 328 | 1.6 | 4.8 | 0.00 | 0.00 | 0.00 | 48 | 1015.9 |
| 20260507150603 | 5 | 0 | 3.2 | 4.8 | 0.00 | 0.00 | 0.00 | 49 | 1015.9 |
| 20260507150104 | 5 | 323 | 1.6 | 4.8 | 0.00 | 0.00 | 0.00 | 48 | 1015.8 |
| 20260507145604 | 5 | 337 | 1.6 | 4.8 | 0.00 | 0.00 | 0.00 | 48 | 1015.8 |
| 20260507145104 | 6 | 356 | 0.0 | 3.2 | 0.00 | 0.00 | 0.00 | 49 | 1015.8 |
| 20260507144604 | 6 | 354 | 1.6 | 4.8 | 0.00 | 0.00 | 0.00 | 47 | 1015.9 |
| 20260507144104 | 6 | 319 | 1.6 | 4.8 | 0.00 | 0.00 | 0.00 | 48 | 1015.8 |
| 20260507143604 | 6 | 278 | 1.6 | 4.8 | 0.00 | 0.00 | 0.00 | 47 | 1015.7 |
| 20260507143104 | 6 | 286 | 0.0 | 3.2 | 0.00 | 0.00 | 0.00 | 48 | 1015.7 |
| 20260507142603 | 6 | 0 | 3.2 | 4.8 | 0.00 | 0.00 | 0.00 | 48 | 1015.7 |
| 20260507142103 | 6 | 290 | 1.6 | 8.0 | 0.00 | 0.00 | 0.00 | 49 | 1015.7 |
| 20260507141607 | 6 | 0 | 0.0 | 4.8 | 0.00 | 0.00 | 0.00 | 49 | 1015.6 |
| 20260507141104 | 6 | 358 | 1.6 | 8.0 | 0.00 | 0.00 | 0.00 | 49 | 1015.6 |
| 20260507140604 | 6 | 330 | 3.2 | 4.8 | 0.00 | 0.00 | 0.00 | 49 | 1015.6 |
| 20260507140103 | 6 | 0 | 1.6 | 4.8 | 0.00 | 0.00 | 0.00 | 47 | 1015.5 |
| 20260507135604 | 6 | 299 | 0.0 | 4.8 | 0.00 | 0.00 | 0.00 | 47 | 1015.5 |
| 20260507135104 | 7 | 342 | 1.6 | 4.8 | 0.00 | 0.00 | 0.00 | 45 | 1015.4 |
| 20260507134603 | 7 | 0 | 4.8 | 8.0 | 0.00 | 0.00 | 0.00 | 45 | 1015.3 |
| 20260507134103 | 7 | 355 | 4.8 | 9.7 | 0.00 | 0.00 | 0.00 | 46 | 1015.3 |
| 20260507133604 | 7 | 334 | 3.2 | 8.0 | 0.00 | 0.00 | 0.00 | 47 | 1015.2 |
| 20260507133103 | 6 | 280 | 3.2 | 11.3 | 0.00 | 0.00 | 0.00 | 47 | 1015.3 |
| 20260507132604 | 6 | 344 | 1.6 | 4.8 | 0.00 | 0.00 | 0.00 | 50 | 1015.3 |
| 20260507132104 | 5 | 339 | 3.2 | 8.0 | 0.00 | 0.00 | 0.00 | 51 | 1015.4 |
| 20260507131604 | 5 | 0 | 3.2 | 4.8 | 0.00 | 0.00 | 0.00 | 50 | 1015.3 |
| 20260507131103 | 5 | 0 | 1.6 | 8.0 | 0.00 | 0.00 | 0.00 | 50 | 1015.3 |
| 20260507130604 | 5 | 0 | 3.2 | 4.8 | 0.00 | 0.00 | 0.00 | 51 | 1015.4 |
| 20260507130103 | 5 | 0 | 3.2 | 4.8 | 0.00 | 0.00 | 0.00 | 51 | 1015.3 |
| 20260507125604 | 5 | 0 | 3.2 | 8.0 | 0.00 | 0.00 | 0.00 | 52 | 1015.3 |
| 20260507125104 | 5 | 0 | 3.2 | 9.7 | 0.00 | 0.00 | 0.00 | 52 | 1015.3 |
| 20260507124604 | 5 | 308 | 1.6 | 4.8 | 0.00 | 0.00 | 0.00 | 52 | 1015.3 |
| 20260507124103 | 5 | 11 | 3.2 | 4.8 | 0.00 | 0.00 | 0.00 | 51 | 1015.3 |
| 20260507123603 | 6 | 9 | 1.6 | 4.8 | 0.00 | 0.00 | 0.00 | 53 | 1015.3 |
| 20260507123103 | 6 | 9 | 1.6 | 8.0 | 0.00 | 0.00 | 0.00 | 51 | 1015.1 |
| 20260507122603 | 5 | 6 | 3.2 | 8.0 | 0.00 | 0.00 | 0.00 | 53 | 1015.1 |
| 20260507122104 | 6 | 336 | 3.2 | 4.8 | 0.00 | 0.00 | 0.00 | 52 | 1015.1 |
| 20260507121603 | 6 | 313 | 1.6 | 8.0 | 0.00 | 0.00 | 0.00 | 52 | 1015.0 |
| 20260507121104 | 6 | 326 | 3.2 | 4.8 | 0.00 | 0.00 | 0.00 | 50 | 1015.1 |
| 20260507120605 | 6 | 4 | 1.6 | 4.8 | 0.00 | 0.00 | 0.00 | 50 | 1015.1 |
| 20260507120104 | 6 | 358 | 3.2 | 8.0 | 0.00 | 0.00 | 0.00 | 52 | 1015.1 |
| 20260507115604 | 6 | 347 | 1.6 | 9.7 | 0.00 | 0.00 | 0.00 | 52 | 1015.0 |
| 20260507115104 | 5 | 286 | 1.6 | 4.8 | 0.00 | 0.00 | 0.00 | 52 | 1015.1 |
| 20260507114604 | 6 | 287 | 1.6 | 4.8 | 0.00 | 0.00 | 0.00 | 52 | 1015.0 |
| 20260507114104 | 6 | 294 | 3.2 | 4.8 | 0.00 | 0.00 | 0.00 | 52 | 1015.0 |
| 20260507113604 | 6 | 320 | 1.6 | 12.9 | 0.00 | 0.00 | 0.00 | 52 | 1015.0 |
| 20260507113104 | 6 | 288 | 3.2 | 9.7 | 0.00 | 0.00 | 0.00 | 52 | 1015.0 |
| 20260507112604 | 6 | 357 | 1.6 | 4.8 | 0.00 | 0.00 | 0.00 | 52 | 1015.0 |
| 20260507112104 | 6 | 297 | 3.2 | 4.8 | 0.00 | 0.00 | 0.00 | 52 | 1014.9 |
| 20260507111604 | 6 | 263 | 3.2 | 8.0 | 0.00 | 0.00 | 0.00 | 53 | 1014.9 |
| 20260507111103 | 6 | 330 | 1.6 | 4.8 | 0.00 | 0.00 | 0.00 | 54 | 1014.9 |
| 20260507110604 | 6 | 308 | 1.6 | 4.8 | 0.00 | 0.00 | 0.00 | 52 | 1014.9 |
| 20260507110104 | 6 | 260 | 1.6 | 8.0 | 0.00 | 0.00 | 0.00 | 55 | 1014.8 |
| 20260507105603 | 6 | 321 | 1.6 | 4.8 | 0.00 | 0.00 | 0.00 | 53 | 1014.9 |
| 20260507105104 | 6 | 304 | 1.6 | 4.8 | 0.00 | 0.00 | 0.00 | 53 | 1014.9 |
| 20260507104604 | 6 | 294 | 1.6 | 4.8 | 0.00 | 0.00 | 0.00 | 54 | 1014.9 |
| 20260507104103 | 6 | 318 | 3.2 | 4.8 | 0.00 | 0.00 | 0.00 | 54 | 1014.9 |
| 20260507103604 | 6 | 316 | 3.2 | 8.0 | 0.00 | 0.00 | 0.00 | 56 | 1014.8 |
| 20260507103104 | 5 | 317 | 1.6 | 4.8 | 0.00 | 0.00 | 0.00 | 59 | 1014.8 |
| 20260507102604 | 5 | 319 | 1.6 | 4.8 | 0.00 | 0.00 | 0.00 | 58 | 1014.7 |
| 20260507102104 | 5 | 319 | 0.0 | 4.8 | 0.00 | 0.00 | 0.00 | 58 | 1014.7 |
| 20260507101604 | 5 | 324 | 1.6 | 4.8 | 0.00 | 0.00 | 0.00 | 55 | 1014.6 |
| 20260507101104 | 6 | 326 | 1.6 | 4.8 | 0.00 | 0.00 | 0.00 | 56 | 1014.7 |
| 20260507100603 | 6 | 335 | 1.6 | 4.8 | 0.00 | 0.00 | 0.00 | 56 | 1014.6 |
| 20260507100104 | 6 | 333 | 1.6 | 4.8 | 0.00 | 0.00 | 0.00 | 57 | 1014.6 |
| 20260507095603 | 6 | 310 | 3.2 | 4.8 | 0.00 | 0.00 | 0.00 | 56 | 1014.5 |
| 20260507095103 | 5 | 286 | 1.6 | 4.8 | 0.00 | 0.00 | 0.00 | 57 | 1014.5 |
| 20260507094603 | 5 | 321 | 3.2 | 4.8 | 0.00 | 0.00 | 0.00 | 61 | 1014.5 |
| 20260507094103 | 5 | 329 | 1.6 | 4.8 | 0.00 | 0.00 | 0.00 | 59 | 1014.5 |
| 20260507093603 | 5 | 327 | 3.2 | 4.8 | 0.00 | 0.00 | 0.00 | 58 | 1014.5 |
| 20260507093104 | 6 | 320 | 1.6 | 4.8 | 0.00 | 0.00 | 0.00 | 58 | 1014.5 |
| 20260507092604 | 6 | 15 | 3.2 | 9.7 | 0.00 | 0.00 | 0.00 | 55 | 1014.5 |
| 20260507092104 | 6 | 270 | 1.6 | 8.0 | 0.00 | 0.00 | 0.00 | 59 | 1014.5 |
| 20260507091604 | 6 | 265 | 3.2 | 12.9 | 0.00 | 0.00 | 0.00 | 60 | 1014.5 |
| 20260507091103 | 6 | 335 | 1.6 | 8.0 | 0.00 | 0.00 | 0.00 | 60 | 1014.5 |
| 20260507090603 | 6 | 299 | 3.2 | 4.8 | 0.00 | 0.00 | 0.00 | 59 | 1014.5 |
| 20260507090104 | 5 | 343 | 3.2 | 4.8 | 0.00 | 0.00 | 0.00 | 60 | 1014.5 |
| 20260507085604 | 6 | 350 | 3.2 | 8.0 | 0.00 | 0.00 | 0.00 | 60 | 1014.4 |
| 20260507085104 | 6 | 333 | 3.2 | 4.8 | 0.00 | 0.00 | 0.00 | 62 | 1014.4 |
| 20260507084603 | 5 | 335 | 1.6 | 9.7 | 0.00 | 0.00 | 0.00 | 61 | 1014.4 |
| 20260507084104 | 5 | 283 | 1.6 | 4.8 | 0.00 | 0.00 | 0.00 | 61 | 1014.3 |
| 20260507083603 | 5 | 309 | 3.2 | 4.8 | 0.00 | 0.00 | 0.00 | 62 | 1014.3 |
| 20260507083103 | 5 | 272 | 1.6 | 4.8 | 0.00 | 0.00 | 0.00 | 64 | 1014.3 |
| 20260507082603 | 5 | 299 | 3.2 | 4.8 | 0.00 | 0.00 | 0.00 | 63 | 1014.3 |
| 20260507082103 | 5 | 0 | 1.6 | 4.8 | 0.00 | 0.00 | 0.00 | 62 | 1014.3 |
| 20260507081604 | 5 | 352 | 1.6 | 4.8 | 0.00 | 0.00 | 0.00 | 63 | 1014.3 |
| 20260507081103 | 4 | 349 | 3.2 | 8.0 | 0.00 | 0.00 | 0.00 | 63 | 1014.2 |
| 20260507080604 | 4 | 327 | 1.6 | 4.8 | 0.00 | 0.00 | 0.00 | 66 | 1014.2 |
| 20260507080103 | 4 | 331 | 3.2 | 8.0 | 0.00 | 0.00 | 0.00 | 65 | 1014.2 |
| 20260507075604 | 4 | 285 | 3.2 | 4.8 | 0.00 | 0.00 | 0.00 | 66 | 1014.1 |
| 20260507075103 | 4 | 281 | 1.6 | 4.8 | 0.00 | 0.00 | 0.00 | 65 | 1014.2 |
| 20260507074604 | 4 | 275 | 3.2 | 4.8 | 0.00 | 0.00 | 0.00 | 66 | 1014.1 |
| 20260507074104 | 3 | 336 | 1.6 | 4.8 | 0.00 | 0.00 | 0.00 | 65 | 1014.1 |
| 20260507073603 | 4 | 355 | 3.2 | 8.0 | 0.00 | 0.00 | 0.00 | 65 | 1014.1 |
| 20260507073104 | 3 | 323 | 3.2 | 4.8 | 0.00 | 0.00 | 0.00 | 67 | 1014.0 |
| 20260507072604 | 4 | 302 | 3.2 | 4.8 | 0.00 | 0.00 | 0.00 | 66 | 1014.0 |
| 20260507072104 | 3 | 314 | 1.6 | 4.8 | 0.00 | 0.00 | 0.00 | 69 | 1014.0 |
| 20260507071604 | 3 | 316 | 1.6 | 4.8 | 0.00 | 0.00 | 0.00 | 70 | 1014.0 |
| 20260507071104 | 3 | 294 | 1.6 | 4.8 | 0.00 | 0.00 | 0.00 | 71 | 1014.0 |
| 20260507070603 | 3 | 293 | 3.2 | 4.8 | 0.00 | 0.00 | 0.00 | 72 | 1013.9 |
| 20260507070104 | 3 | 288 | 1.6 | 9.7 | 0.00 | 0.00 | 0.00 | 74 | 1014.0 |
| 20260507065604 | 2 | 320 | 3.2 | 4.8 | 0.00 | 0.00 | 0.00 | 73 | 1014.0 |
| 20260507065104 | 2 | 264 | 1.6 | 3.2 | 0.00 | 0.00 | 0.00 | 75 | 1013.9 |
| 20260507064604 | 3 | 267 | 3.2 | 4.8 | 0.00 | 0.00 | 0.00 | 74 | 1013.9 |
| 20260507064103 | 3 | 262 | 3.2 | 4.8 | 0.00 | 0.00 | 0.00 | 75 | 1013.9 |